[[{"header":{"parameterUnit":"m.s-1","parameterCategory":1,"la1":30.2992,"la2":30.254,"lo1":-89.0895,"lo2":-89.0443,"dy":0.0025,"dx":0.0025,"nx":19,"ny":19,"refTime":"2026-05-13T03:00:00:Z","depth":0,"parameterNumber":2,"parameterNumberName":"U-component_of_WINDS"},"data":[0,0,0,1.1894,1.1895,1.1959,1.1959,1.2043,1.2044,0,0,0,0,0,0,0,0,0,0,0,1.1872,1.1873,1.1893,1.1895,1.1959,1.1959,1.2043,1.2044,0,0,0,0,0,0,0,0,0,0,0,1.1872,1.1873,1.1873,1.1895,1.1959,1.1959,1.2043,1.1995,0,0,0,0,0,0,0,0,0,0,1.1932,1.191,1.1873,1.1873,1.1895,1.1959,1.1959,1.1992,1.1998,1.2014,0,1.2025,0,1.2035,1.2049,1.205,0,0,0,1.1897,1.1905,1.1924,1.1873,1.1896,1.1958,1.1931,1.1995,1.2001,1.2021,1.2026,1.2029,1.2037,1.205,1.205,1.213,1.2131,0,0,1.1894,1.1883,1.192,1.1928,1.1914,1.1929,1.1933,1.1999,1.2005,1.2026,1.2031,1.2038,1.205,1.2051,1.213,1.2131,0,0,0,1.1882,1.1881,1.1898,1.1925,1.1936,1.193,1.1935,1.2002,1.2008,1.2032,1.2039,1.2051,1.2052,1.213,1.213,1.2132,0,0,0,1.188,1.1874,1.1897,1.1891,1.1934,1.1969,1.1937,1.2004,1.2012,1.2039,1.2051,1.2053,1.213,1.213,1.2132,1.2135,0,0,0,1.1869,1.1873,1.1881,1.189,1.1917,1.1968,1.1978,1.2006,1.2016,1.205,1.2053,1.2129,1.213,1.2131,1.2134,1.2154,0,0,0,1.1855,1.1882,1.1881,1.1914,1.1916,1.1968,1.1978,1.2018,1.2047,1.2051,1.213,1.213,1.2131,1.2134,1.2153,1.2168,1.2173,0,0,1.1884,1.1885,1.1906,1.1907,1.1955,1.1959,1.201,1.2047,1.2062,1.2108,1.211,1.2132,1.2134,1.2154,1.2205,1.2209,0,0,0,1.1912,1.1927,1.1942,1.1968,1.1996,1.2022,1.2053,1.2067,1.2106,1.2082,1.2144,1.2146,1.2158,1.2166,1.2169,1.2181,1.2133,1.2133,1.2133,1.1938,1.1953,1.1989,1.2012,1.2038,1.207,1.2094,1.2119,1.2128,1.2143,1.2157,1.2186,1.2194,1.2197,1.2209,1.2166,1.2166,1.2166,1.2166,1.1981,1.2005,1.2016,1.2055,1.2073,1.2107,1.2141,1.2146,1.2183,1.2176,1.2188,1.2179,1.2201,1.2212,1.2166,1.2166,1.2166,1.2166,1.2166,1.2,1.2014,1.203,1.2071,1.2101,1.2126,1.216,1.2176,1.2191,1.2202,1.2219,1.2219,1.2222,1.2209,1.2209,1.2209,1.2209,1.2209,1.221,1.2013,1.2031,1.2056,1.2089,1.2109,1.2138,1.2172,1.2194,1.2222,1.2231,1.2231,1.224,1.2199,1.2189,1.2211,1.2211,1.2211,1.221,1.221,1.2052,1.2046,1.2084,1.2104,1.2146,1.2177,1.2196,1.2239,1.2259,1.2276,1.2284,1.2251,1.2254,1.2252,1.2243,1.2279,1.2279,1.2279,1.2279,1.2068,1.2071,1.2115,1.2146,1.2178,1.22,1.2248,1.2277,1.2306,1.2321,1.2318,1.2309,1.2305,1.2311,1.2307,1.23,1.2349,1.2349,1.2349,1.2093,1.21,1.2135,1.2161,1.2196,1.2227,1.2273,1.2312,1.2344,1.2352,1.2333,1.233,1.2315,1.2308,1.2315,1.2309,1.2295,0,0]},{"header":{"parameterUnit":"m.s-1","parameterCategory":1,"la1":30.2992,"la2":30.254,"lo1":-89.0895,"lo2":-89.0443,"dy":0.0025,"dx":0.0025,"nx":19,"ny":19,"refTime":"2026-05-13T03:00:00:Z","depth":0,"parameterNumber":3,"parameterNumberName":"V-component_of_WINDS"},"data":[0,0,0,-2.3739,-2.3738,-2.3728,-2.3728,-2.3707,-2.3707,0,0,0,0,0,0,0,0,0,0,0,-2.3737,-2.3737,-2.3739,-2.3738,-2.3728,-2.3728,-2.3707,-2.3707,0,0,0,0,0,0,0,0,0,0,0,-2.3737,-2.3737,-2.3737,-2.3738,-2.3728,-2.3728,-2.3707,-2.3718,0,0,0,0,0,0,0,0,0,0,-2.3729,-2.3724,-2.3737,-2.3737,-2.3738,-2.3728,-2.3728,-2.3719,-2.3717,-2.3709,0,-2.37,0,-2.3703,-2.3705,-2.3705,0,0,0,-2.3742,-2.3725,-2.3726,-2.3737,-2.3738,-2.3728,-2.3734,-2.3718,-2.3716,-2.3707,-2.37,-2.3699,-2.3703,-2.3705,-2.3705,-2.3643,-2.3642,0,0,-2.3742,-2.3733,-2.3727,-2.3725,-2.3726,-2.3734,-2.3733,-2.3717,-2.3709,-2.37,-2.3699,-2.3702,-2.3705,-2.3705,-2.3643,-2.3643,0,0,0,-2.3742,-2.3733,-2.3735,-2.3725,-2.3724,-2.3734,-2.3733,-2.371,-2.3711,-2.3699,-2.3702,-2.3705,-2.3704,-2.3644,-2.3643,-2.361,0,0,0,-2.3742,-2.3733,-2.3735,-2.373,-2.3724,-2.3717,-2.3726,-2.3712,-2.371,-2.3702,-2.3705,-2.3704,-2.3644,-2.3643,-2.3612,-2.3595,0,0,0,-2.374,-2.3733,-2.373,-2.3729,-2.3724,-2.3717,-2.3718,-2.3712,-2.3712,-2.3705,-2.3704,-2.3645,-2.3644,-2.3614,-2.3598,-2.3573,0,0,0,-2.3734,-2.3702,-2.3729,-2.3695,-2.3724,-2.3697,-2.3718,-2.3699,-2.3689,-2.3705,-2.3644,-2.3643,-2.3614,-2.36,-2.3575,-2.3549,-2.3538,0,0,-2.3689,-2.3696,-2.3677,-2.3701,-2.3666,-2.37,-2.366,-2.3661,-2.3669,-2.3651,-2.365,-2.3611,-2.3598,-2.3573,-2.3484,-2.3475,0,0,0,-2.3659,-2.3644,-2.3637,-2.3627,-2.3626,-2.3623,-2.363,-2.363,-2.3614,-2.3658,-2.3598,-2.359,-2.3576,-2.3564,-2.3556,-2.3543,-2.3638,-2.3638,-2.3638,-2.358,-2.3591,-2.3559,-2.3568,-2.3558,-2.3565,-2.3557,-2.3558,-2.3574,-2.356,-2.3553,-2.3498,-2.3483,-2.3477,-2.3464,-2.3543,-2.3543,-2.3543,-2.3543,-2.3511,-2.3491,-2.3512,-2.3487,-2.3499,-2.3479,-2.3484,-2.3496,-2.3478,-2.3504,-2.3492,-2.3516,-2.3467,-2.3455,-2.354,-2.3541,-2.3541,-2.3541,-2.3541,-2.3458,-2.345,-2.345,-2.3434,-2.3421,-2.3433,-2.3414,-2.3427,-2.3439,-2.3428,-2.342,-2.3421,-2.342,-2.3424,-2.3424,-2.3424,-2.3424,-2.3423,-2.3423,-2.3401,-2.3402,-2.3384,-2.3379,-2.3373,-2.3367,-2.3373,-2.3367,-2.3364,-2.3374,-2.3374,-2.3389,-2.3461,-2.3477,-2.342,-2.3421,-2.3421,-2.3422,-2.3422,-2.3321,-2.3341,-2.3313,-2.3307,-2.3301,-2.3285,-2.3303,-2.3289,-2.3287,-2.3276,-2.3294,-2.3347,-2.3355,-2.3361,-2.3374,-2.3294,-2.3294,-2.3294,-2.3294,-2.3273,-2.328,-2.3252,-2.3241,-2.3231,-2.3243,-2.3209,-2.3214,-2.3221,-2.322,-2.3234,-2.3254,-2.326,-2.3265,-2.3273,-2.3285,-2.3184,-2.3184,-2.3184,-2.3223,-2.3229,-2.3197,-2.3205,-2.3201,-2.3197,-2.3164,-2.3149,-2.3163,-2.3179,-2.3218,-2.3223,-2.3254,-2.3265,-2.3279,-2.3291,-2.3314,0,0]}]]